SCP
0 0 0 0 0 -0 -0 -0 -0 -0 -0 -0 -0 -0 -0 -0 0 0 0 0 0 0 0 0 0 0 0 0 0 0 0 0 0 0 0 0 0 0 0 0 0 0 0 0 0 0 0 0 0 0 0 0 0 0
0 0 0 0 0 -0 0 -0 -0 -0 -0 -0 -0 -0 -0 -0 -0 0 0 0 0 0 0 0 0 0 0 0 0 0 0 0 0 0 0 0 0 0 0 0 0 0 0 0 0 0 0 0 0 0 0 0 0 0
0 0 0 0 0 -0 -0 -0 0 -0 -0 -0 -0 -0 -0 -0 -0 0 0 0 0 0 0 0 0 0 0 0 0 0 0 0 0 0 0 0 0 0 0 0 0 0 0 0 0 0 0 0 0 0 0 0 0 0
-0 0 0 0 0 0 -0 0 -0 -0 -0 0 -0 -0 -0 -0 -0 -0 0 0 0 0 0 0 0 0 0 0 0 0 0 0 0 0 0 0 0 0 0 0 0 0 0 0 0 0 0 0 0 0 0 0 0 0
-0 -0 0 0 0 0 0 -0 -0 0 0 0 0 0 0 0 0 -0 0 0 0 0 0 0 0 0 0 0 0 0 0 0 0 0 0 0 0 0 0 0 0 0 0 0 0 0 0 0 0 0 0 0 0 0
-0 -0 0 0 0 0 0 -0 -0 0 0 0 0 0 -0 -0 0 0 0 0 0 0 0 0 0 0 0 0 0 0 0 0 0 0 0 0 0 0 0 0 0 0 0 0 0 0 0 0 0 0 0 0 0 0
-0 -0 -0 0 0 0 0 0 0 0 0 -0 0 0 -0 -0 -0 0 0 0 0 0 0 0 0 0 0 0 0 0 0 0 0 0 0 0 0 0 0 0 0 0 0 0 0 0 0 0 0 0 0 0 0 0
0 0 -0 0 0 0 0 0 0 0 0 -0 -0 -0 -0 0 0 0 0 0 0 0 0 0 0 0 0 0 0 0 0 0 0 0 0 0 0 0 0 0 0 0 0 0 0 0 0 0 0 0 0 0 0 0
-0 0 0 -0 -0 0 0 0 0 0 0 0 0 0 0 0 -0 0 0 0 0 0 0 0 0 0 0 0 0 0 0 0 0 0 0 0 0 0 0 0 0 0 0 0 0 0 0 0 0 0 0 0 -0 0
-0 -0 -0 -0 -0 -0 -0 -0 0 -0 0 0 -0 -0 0 0 0 0 0 0 0 0 0 0 0 0 0 0 0 0 0 0 0 0 0 0 0 0 0 0 0 0 0 0 0 0 0 -0 -0 -0 -0 -0 0 -0
-0 -0 -0 -0 -0 -0 -0 -0 -0 0 -0 -0 -0 -0 0 0 -0 -0 -0 0 0 0 0 0 -0 -0 0 0 0 0 0 0 0 0 0 0 -0 0 0 0 0 0 0 0 -0 -0 -0 -0 -0 -0 -0 -0 0 0
0 0 -0 -0 -0 -0 -0 -0 -0 -0 0 0 0 -0 -0 -0 -0 0 -0 -0 -0 0 -0 -0 -0 0 0 0 0 0 0 0 0 0 0 0 0 0 -0 0 -0 -0 -0 -0 -0 -0 -0 -0 -0 -0 -0 0 0 0
0 0 0 0 -0 -0 -0 -0 0 -0 0 0 0 0 -0 -0 0 -0 -0 -0 -0 -0 -0 0 0 0 0 0 0 0 0 0 0 0 0 0 0 0 0 0 -0 -0 0 0 -0 -0 -0 -0 0 0 -0 0 0 0
0 0 0 0 0 0 -0 -0 -0 0 0 0 0 -0 -0 -0 -0 -0 -0 0 0 0 0 0 0 0 0 0 0 0 0 0 0 0 0 0 0 0 -0 -0 -0 -0 -0 -0 -0 -0 -0 -0 -0 -0 -0 -0 -0 0
0 0 0 0 0 0 0 -0 0 0 0 0 0 -0 -0 0 -0 0 0 0 0 0 0 0 0 0 0 0 0 0 0 0 0 0 -0 -0 -0 -0 -0 -0 -0 -0 -0 -0 -0 -0 -0 -0 -0 0 0 -0 -0 0
0 0 0 0 0 0 0 0 0 0 0 0 0 0 0 0 -0 -0 0 0 0 0 0 0 0 0 0 0 0 0 0 0 0 0 -0 -0 -0 -0 -0 -0 -0 -0 -0 -0 -0 -0 -0 0 0 0 0 0 0 0
0 0 0 0 0 0 0 0 0 0 0 0 0 0 0 0 0 0 0 0 0 0 0 0 0 0 0 0 0 0 0 0 0 -0 -0 -0 -0 -0 -0 -0 -0 -0 -0 0 0 0 0 0 0 0 0 0 0 0
0 0 0 0 0 0 0 0 0 0 0 0 0 0 0 0 0 0 0 0 0 0 0 0 0 0 0 0 0 0 0 0 0 -0 0 0 0 0 0 -0 0 0 0 0 0 0 0 0 0 0 0 0 0 0
0 0 0 0 0 0 0 0 0 0 0 0 0 0 0 0 0 0 0 0 0 0 0 0 0 0 0 0 0 0 0 -0 -0 -0 -0 -0 -0 -0 -0 -0 -0 0 0 0 0 0 0 0 0 0 0 0 0 0
0 0 0 0 0 0 0 0 0 0 0 0 0 0 0 0 0 0 0 0 0 0 0 0 0 0 0 0 0 -0 -0 -0 -0 -0 -0 -0 -0 -0 -0 -0 0 0 0 0 0 0 0 0 0 0 0 0 0 0
0 0 0 0 0 0 0 0 0 0 0 0 0 0 0 0 0 0 0 0 0 0 0 0 0 0 0 0 0 0 -0 -0 -0 -0 -0 -0 -0 -0 -0 0 0 0 0 0 0 0 0 0 0 0 0 0 0 0
0 0 0 0 0 0 0 0 0 0 0 0 0 0 0 0 0 0 0 0 0 0 0 0 0 0 0 0 0 0 0 -0 -0 -0 -0 -0 -0 -0 -0 0 0 0 0 0 0 0 0 0 0 0 0 0 0 0
0 0 0 0 0 0 0 0 0 0 0 0 0 0 0 0 0 0 0 0 0 0 0 0 0 0 0 0 0 0 0 0 0 0 0 0 0 0 0 0 0 0 0 0 0 0 0 0 0 0 0 0 0 0
0 0 0 0 0 0 0 0 0 0 0 0 0 0 0 0 0 0 0 0 0 0 0 0 0 0 0 0 0 0 0 0 0 0 0 0 0 0 0 0 0 0 0 0 0 0 0 0 0 0 0 0 0 0
0 0 0 0 0 0 0 0 0 0 0 0 0 0 0 0 0 0 0 0 0 0 0 0 0 0 0 0 0 0 0 0 0 0 0 0 0 0 0 0 0 0 0 0 0 0 0 0 0 0 0 0 0 0
0 0 0 0 0 0 0 0 0 0 0 0 0 0 0 0 0 0 0 0 0 0 0 0 0 0 0 0 0 0 0 0 0 0 0 0 0 0 0 0 0 0 0 0 0 0 0 0 0 0 0 0 0 0
0 0 0 0 0 0 0 0 0 0 0 0 0 0 0 0 0 0 0 0 0 0 0 0 0 -0 -0 -0 -0 -0 -0 0 0 0 0 0 0 0 0 0 0 0 0 0 0 0 0 0 0 0 0 0 0 0
0 0 0 0 0 0 0 0 0 0 0 0 0 0 0 0 0 0 0 0 0 0 0 0 -0 -0 -0 -0 -0 -0 -0 -0 -0 0 0 0 0 0 0 0 0 0 0 0 0 0 0 0 0 0 0 0 0 0
0 0 0 0 0 0 0 0 0 0 0 0 0 0 0 0 0 0 0 0 0 0 0 0 -0 -0 -0 -0 -0 0 -0 -0 -0 -0 -0 0 0 0 0 0 0 0 0 0 0 0 0 0 0 0 0 0 0 0
0 0 0 0 0 0 0 0 0 0 0 0 0 0 0 0 0 0 0 0 0 0 0 0 -0 -0 -0 -0 0 0 0 0 -0 -0 -0 0 0 0 0 0 0 0 0 0 0 0 0 0 0 0 0 0 0 0
0 0 0 0 0 0 0 0 0 0 0 0 0 0 0 0 0 0 0 0 0 0 0 0 0 0 0 0 0 0 0 0 0 0 0 0 0 0 0 0 0 0 0 0 0 0 0 0 0 0 0 0 0 0
0 0 0 0 0 0 0 0 0 0 0 0 0 0 0 0 0 0 0 0 0 0 0 0 0 0 0 0 0 0 0 0 0 0 0 0 0 0 0 0 0 0 0 0 0 0 0 0 0 0 0 0 0 0
0 0 0 0 0 0 0 0 0 0 0 0 0 0 0 0 0 0 0 0 0 0 0 0 0 0 0 0 0 0 0 0 0 0 0 0 0 0 0 0 0 0 0 0 0 0 0 0 0 0 0 0 0 0
Wind_Speed_500mb
28 41 42 28 15 15 18 14 17 27 30 29 24 26 25 18 17 25 28 41 45 28 37 30 27 22 28 17 14 22 14 3 5 8 7 6 6 11 6 7 15 15 13 7 6 5 26 29 13 23 18 15 21 26
23 34 33 26 19 14 13 13 13 22 25 28 32 37 23 24 26 52 50 45 53 40 34 57 50 33 31 25 40 14 9 8 11 8 2 7 6 3 7 7 2 7 13 12 21 16 5 56 36 64 39 33 44 45
19 25 30 17 13 10 9 8 10 17 20 23 28 36 46 30 22 20 69 65 82 65 47 39 40 42 30 32 43 13 10 8 7 8 9 5 6 7 8 9 4 8 7 7 9 18 23 49 56 53 62 70 66 60
16 12 19 22 10 8 11 7 5 12 13 18 22 27 36 47 34 23 35 33 37 25 11 18 23 35 28 28 30 20 33 23 26 19 8 5 6 15 7 6 8 11 23 11 11 17 7 30 59 70 65 59 59 50
10 6 10 14 13 12 15 11 2 8 12 15 17 23 28 29 39 49 41 44 28 15 11 12 31 31 29 21 23 22 25 33 14 7 6 4 6 6 3 4 7 22 15 13 15 39 32 44 50 51 61 62 59 59
10 4 2 8 9 10 16 15 8 9 10 15 15 13 18 20 17 16 12 39 35 36 15 6 8 15 23 24 27 25 25 18 8 6 4 5 7 4 6 7 20 54 55 64 14 9 24 42 50 54 54 65 67 66
10 11 11 8 9 13 19 24 20 16 14 12 14 14 16 21 16 15 13 13 24 17 10 7 5 7 12 15 13 13 12 12 7 5 4 2 2 6 5 7 44 52 45 48 56 62 57 76 71 76 64 57 61 70
18 21 25 22 19 17 18 18 18 15 13 13 15 15 17 20 22 27 21 16 16 14 11 7 4 5 6 6 7 8 7 8 4 5 5 3 1 1 8 38 84 63 52 60 84 78 81 89 84 85 84 88 92 89
24 33 35 38 31 25 20 20 17 14 11 9 9 9 10 6 9 12 17 17 15 11 9 7 8 6 9 6 7 6 4 3 1 3 5 10 4 12 23 26 49 83 63 71 72 64 63 63 80 83 80 82 85 83
18 33 45 46 38 33 27 21 16 11 7 4 4 2 8 9 10 9 7 7 9 13 11 4 7 3 7 4 3 7 3 2 3 6 2 7 9 55 58 73 80 92 91 78 66 65 69 74 81 86 88 86 85 85
2 32 46 48 41 35 28 23 13 6 2 3 5 7 7 9 9 7 7 8 9 6 7 4 5 7 5 6 4 1 4 1 4 7 6 6 9 15 41 51 53 54 65 66 69 73 76 76 80 75 79 75 70 66
14 27 45 44 39 34 28 21 13 5 5 6 7 12 8 4 4 9 1 3 2 7 6 4 5 9 8 5 7 2 5 4 8 3 5 7 13 39 32 36 37 42 45 49 53 59 63 68 72 76 76 77 70 61
27 36 40 39 38 34 28 23 18 8 3 5 5 5 4 4 9 7 5 6 4 11 15 10 3 6 7 5 9 5 5 7 3 2 8 12 27 41 36 31 26 25 28 31 34 41 44 48 51 55 57 53 51 48
39 43 44 45 39 36 32 30 24 17 5 1 4 2 5 6 8 8 8 8 6 5 28 22 11 6 5 4 4 7 3 4 1 3 14 8 38 24 15 18 21 22 23 26 29 33 36 40 37 38 37 35 35 37
51 48 54 51 51 45 39 34 32 27 10 6 7 9 11 7 6 4 11 12 11 33 34 13 10 4 1 4 3 8 5 8 12 11 7 18 13 21 25 32 34 32 32 32 32 30 29 33 29 31 32 31 33 33
48 59 59 55 49 52 45 44 40 33 9 11 14 5 5 2 5 12 19 16 28 40 20 9 6 6 8 6 6 15 13 15 10 8 34 12 13 23 37 42 39 37 37 32 29 29 25 25 27 29 32 31 27 27
36 47 60 60 50 52 57 56 48 23 17 15 11 34 27 6 8 13 24 25 43 36 6 8 9 15 4 2 7 10 12 8 12 19 28 38 50 53 50 51 47 46 44 38 31 31 28 26 28 34 34 29 31 31
54 36 41 56 64 59 72 58 25 20 14 15 10 22 32 19 14 16 22 33 39 24 21 11 12 10 12 13 10 9 36 52 53 59 68 70 68 65 59 49 45 50 48 43 36 34 30 28 31 28 28 32 36 38
58 39 38 45 53 50 21 22 18 14 12 11 18 19 18 14 26 18 20 38 34 20 10 9 5 8 9 13 17 46 54 58 65 70 67 69 72 73 67 62 68 61 58 50 45 38 33 28 29 34 35 40 39 38
45 35 39 49 57 24 16 10 11 8 10 15 15 22 13 10 16 19 25 33 37 12 5 7 12 30 26 52 41 46 47 52 60 74 77 76 78 74 72 73 68 59 58 56 56 50 37 35 38 41 42 45 46 44
59 48 53 48 55 28 12 15 13 11 14 13 16 18 9 11 10 14 17 30 19 15 7 35 54 65 68 66 65 68 75 77 78 74 79 84 81 81 83 78 73 69 65 63 63 58 52 44 44 47 47 49 49 45
60 75 49 50 17 25 12 15 9 20 14 15 20 13 9 7 9 11 20 19 16 20 26 39 51 53 66 74 76 74 71 70 71 73 70 67 74 73 73 73 70 70 66 67 66 69 67 57 53 58 56 52 50 49
70 61 26 19 12 15 7 21 9 11 6 9 11 6 4 6 11 15 9 15 18 18 18 25 24 26 30 26 21 21 24 27 30 30 35 41 47 49 52 49 50 60 70 76 69 72 73 69 69 70 65 58 56 57
63 43 20 29 16 9 16 7 9 10 9 7 9 8 5 7 14 5 7 10 11 11 10 17 24 34 32 34 39 41 41 42 44 45 39 43 51 55 55 57 55 52 52 56 62 66 68 70 67 68 65 63 62 64
22 17 23 10 12 13 8 7 5 5 8 8 9 6 6 13 5 7 7 6 11 5 16 23 28 34 40 45 47 50 49 53 58 63 59 56 54 58 62 61 60 53 44 50 53 56 60 62 68 72 69 67 65 65
12 16 16 13 8 14 16 13 17 13 9 9 6 10 11 6 5 10 5 5 6 15 26 32 38 43 39 39 52 56 54 52 55 59 58 59 60 61 66 69 70 65 51 48 48 48 49 52 57 66 73 70 66 66
14 10 12 14 22 24 10 9 11 7 12 14 11 11 9 11 13 3 10 18 17 22 25 27 30 35 45 53 52 51 52 52 53 59 63 59 49 40 41 47 54 55 55 57 54 52 51 50 51 52 58 64 67 64
13 26 18 24 11 11 11 8 11 14 10 18 22 12 17 6 4 7 9 15 18 20 23 29 36 43 47 50 53 57 60 58 57 55 52 39 31 37 30 29 43 49 52 53 49 46 46 44 45 45 46 49 53 55
8 32 35 9 7 6 8 10 12 11 27 28 6 7 7 14 26 29 29 24 24 28 34 40 42 41 43 47 49 48 52 55 54 58 59 61 63 51 49 53 48 43 43 48 43 40 35 33 34 36 34 34 34 39
4 19 11 8 11 8 4 11 16 32 23 22 23 43 52 41 52 54 47 39 41 44 42 42 44 48 53 59 66 60 55 54 55 55 62 65 68 65 60 52 46 43 39 39 41 32 32 32 27 29 27 25 26 30
8 4 9 9 7 5 18 31 33 35 23 20 29 37 33 27 24 50 63 53 47 47 46 48 49 49 52 55 63 75 78 67 58 51 48 52 54 54 51 47 46 43 40 40 35 32 23 30 29 25 26 26 26 28
17 10 3 8 5 15 19 8 11 11 10 10 12 15 18 14 12 19 45 53 54 58 58 52 47 48 44 44 47 52 58 63 60 55 54 52 51 49 48 48 46 40 36 36 28 22 22 21 27 25 23 24 24 25
7 14 14 12 8 5 6 11 9 8 14 10 12 14 17 13 12 21 19 45 50 57 59 53 42 36 41 43 50 53 54 57 58 54 49 47 47 48 46 41 37 33 28 23 18 16 16 16 17 19 19 20 21 21
Wind_Direction_500mb
14 10 13 34 78 77 49 43 51 54 49 44 47 47 75 83 70 146 117 131 118 93 58 107 106 120 125 141 142 160 112 347 32 87 114 186 131 210 108 171 173 157 152 173 95 83 261 172 135 171 198 187 210 215
18 23 28 63 64 60 59 38 38 54 50 57 53 51 59 65 93 113 94 117 126 101 97 88 89 104 112 112 128 121 105 122 148 104 126 112 87 87 148 211 202 207 184 183 187 211 189 184 200 211 229 221 225 235
17 37 28 41 57 71 89 70 34 31 53 59 57 54 60 64 87 106 107 99 101 96 76 83 64 89 113 137 151 127 134 131 128 112 140 143 147 130 163 237 108 252 182 189 99 242 212 207 214 226 232 240 249 255
8 40 42 22 46 130 143 128 62 27 52 63 66 55 59 64 73 101 123 75 83 88 86 45 83 76 89 129 148 143 140 131 142 127 96 135 148 196 194 164 173 193 153 169 261 272 341 252 232 233 235 245 251 256
354 6 54 39 37 152 155 157 99 52 38 58 73 65 46 58 65 70 75 63 65 72 120 96 78 68 77 111 126 134 164 164 141 74 70 202 131 116 2 58 253 181 183 183 226 222 213 246 250 247 243 249 255 265
285 300 121 81 57 95 131 152 148 83 69 77 85 79 52 49 43 55 71 57 75 104 108 73 70 66 94 102 119 124 142 138 126 113 163 166 170 166 143 206 251 221 216 226 236 213 251 272 280 274 270 271 273 276
285 272 210 175 131 125 123 123 120 113 94 92 83 66 54 50 34 72 87 32 46 55 82 86 52 67 101 121 109 91 91 79 79 99 55 89 217 195 115 217 259 256 253 259 264 266 266 265 268 274 274 282 286 285
273 244 214 190 173 156 141 136 134 126 114 91 73 67 55 51 47 58 70 80 53 60 64 101 85 61 98 70 66 94 104 131 129 137 136 179 340 193 250 241 251 266 265 266 266 263 263 271 274 275 279 283 283 281
276 243 210 191 181 175 160 149 145 135 122 103 73 55 48 30 44 36 57 72 62 75 103 78 127 196 144 97 105 92 94 38 208 205 218 165 218 223 225 253 255 263 254 262 274 275 275 267 275 279 278 277 274 278
304 201 194 187 182 176 177 175 168 153 131 85 46 61 61 33 40 39 40 29 36 33 59 106 145 96 134 138 58 111 70 164 185 256 220 222 249 247 251 257 266 271 275 277 273 273 267 266 270 276 276 277 278 278
207 180 184 184 184 180 182 189 189 180 74 46 51 72 52 42 30 43 53 44 3 31 36 75 72 141 126 106 160 91 180 275 46 269 138 270 277 242 269 276 278 283 278 275 271 273 277 275 275 275 278 278 279 278
183 185 184 186 188 187 191 192 188 152 64 74 63 68 61 48 65 87 35 14 160 203 164 160 107 86 114 119 95 198 129 64 244 316 45 273 251 274 278 279 281 276 274 274 273 273 274 274 272 271 270 271 272 271
196 185 189 196 195 194 195 192 181 167 133 40 48 60 41 2 29 115 218 297 297 179 171 152 96 98 111 110 68 78 105 221 116 50 235 238 275 284 294 292 282 278 280 276 274 272 271 270 267 267 266 264 262 259
201 201 200 197 203 205 202 202 189 173 145 48 83 240 158 223 230 189 184 189 168 178 148 120 101 98 108 106 124 139 242 81 36 270 238 254 273 319 323 323 313 312 306 303 300 294 290 285 277 264 255 247 244 246
205 207 204 208 203 201 203 202 194 182 175 192 175 228 216 210 228 198 182 152 131 147 143 105 84 123 89 131 150 94 41 247 215 229 229 255 318 328 335 332 330 327 323 321 313 308 295 286 274 263 246 239 239 235
210 210 209 206 209 203 202 201 195 192 209 211 209 193 181 136 255 211 196 171 154 156 136 115 113 74 241 160 124 214 155 221 240 215 241 283 340 330 326 319 311 310 309 312 315 314 306 291 272 262 260 261 252 242
226 217 212 208 204 201 203 202 196 197 215 202 227 217 189 191 161 181 192 183 174 161 171 141 171 216 88 96 244 191 212 227 223 255 280 293 308 315 320 315 306 296 296 299 315 319 313 296 281 272 267 266 257 245
226 218 206 203 203 196 191 190 196 203 197 190 177 201 202 215 182 183 183 175 168 195 165 198 138 177 204 198 241 237 241 261 277 286 295 303 308 309 309 309 320 312 290 283 285 293 300 299 292 290 274 257 250 243
222 211 208 191 187 198 194 208 203 188 195 183 193 179 186 200 211 206 189 185 187 179 172 168 215 207 226 221 236 261 269 276 286 296 299 302 305 306 306 305 310 310 302 281 278 279 283 290 301 292 276 264 255 246
213 209 201 190 184 180 181 219 201 191 177 190 183 172 174 176 180 190 191 190 192 183 189 214 223 236 229 250 267 278 288 295 300 304 303 303 303 301 298 298 298 297 293 292 279 274 278 291 300 295 285 274 264 253
196 180 192 192 192 199 200 187 179 180 158 160 172 166 159 152 160 172 180 179 182 212 232 233 246 257 264 268 277 286 290 293 293 292 291 294 297 296 294 294 293 291 283 279 279 270 270 279 299 295 287 277 269 260
175 182 169 175 180 185 201 193 155 154 149 139 151 168 137 139 157 163 169 188 231 229 221 257 268 281 289 289 291 291 292 290 287 286 288 289 288 291 291 289 288 286 285 279 276 273 273 275 281 285 281 279 266 255
172 170 146 152 166 177 170 171 158 156 137 158 138 130 155 147 164 160 229 225 247 247 258 280 307 320 323 344 350 357 338 323 314 311 314 312 312 314 313 308 294 285 282 278 278 275 273 272 272 274 273 270 262 251
174 167 158 162 162 141 146 124 135 117 115 159 160 167 178 147 155 164 251 241 219 141 32 9 352 353 3 2 355 354 349 344 337 331 332 328 321 320 316 315 311 306 301 293 283 275 270 267 268 267 265 262 257 250
148 173 155 143 147 122 127 118 141 159 170 174 159 152 173 161 175 204 229 250 167 93 1 355 353 354 345 342 344 346 347 341 335 327 328 329 320 315 314 313 310 310 313 308 300 289 282 273 265 263 262 260 257 252
178 170 161 148 147 158 172 144 184 168 142 149 163 116 150 157 171 239 200 108 88 7 354 348 342 338 344 343 335 339 340 335 327 321 324 323 321 317 312 310 313 312 316 308 305 301 292 283 271 264 261 260 259 256
153 163 152 141 141 134 105 92 134 140 170 170 163 167 162 182 218 214 123 15 7 358 354 346 339 340 339 340 340 337 332 327 319 314 316 318 319 311 308 308 311 317 313 305 298 290 293 291 285 276 265 260 259 260
130 157 155 168 128 153 128 136 154 179 167 142 137 173 174 181 110 69 27 17 9 358 355 360 359 353 348 345 342 337 332 328 322 319 315 317 316 320 310 306 311 310 313 311 303 286 281 281 286 285 276 266 259 258
104 127 124 94 108 153 185 163 188 178 152 163 130 117 94 67 82 68 53 43 27 18 13 7 2 354 349 347 349 353 350 345 345 341 334 325 323 323 315 310 311 307 307 316 314 290 275 269 279 286 282 276 266 259
118 147 102 124 144 164 148 134 137 143 124 122 99 104 102 95 65 53 47 42 36 32 28 23 16 12 12 8 358 354 355 353 349 343 333 325 321 321 324 320 313 314 312 310 321 312 279 267 266 277 278 273 267 264
347 92 90 72 88 78 120 120 123 120 109 83 107 123 123 141 83 39 34 30 33 31 26 24 26 21 15 15 5 357 356 358 351 344 337 329 326 326 326 324 319 312 315 310 299 325 309 278 271 274 281 280 276 273
12 25 86 105 96 122 117 97 95 84 80 76 73 99 115 108 82 38 11 11 20 23 22 16 12 12 11 9 7 4 1 359 355 352 349 345 341 336 332 328 324 316 309 310 297 301 319 313 291 278 277 278 278 276
17 36 70 102 106 110 114 103 78 88 66 76 71 67 61 75 86 27 3 13 13 13 9 8 9 11 12 14 11 6 6 6 6 2 357 354 352 347 341 337 333 329 323 324 314 305 311 307 297 292 288 284 279 273
Wind_Speed_850mb
28 41 42 28 15 15 18 14 17 27 30 29 24 26 25 18 17 25 28 41 45 28 37 30 27 22 28 17 14 22 14 3 5 8 7 6 6 11 6 7 15 15 13 7 6 5 26 29 13 23 18 15 21 26
23 34 33 26 19 14 13 13 13 22 25 28 32 37 23 24 26 52 50 45 53 40 34 57 50 33 31 25 40 14 9 8 11 8 2 7 6 3 7 7 2 7 13 12 21 16 5 56 36 64 39 33 44 45
19 25 30 17 13 10 9 8 10 17 20 23 28 36 46 30 22 20 69 65 82 65 47 39 40 42 30 32 43 13 10 8 7 8 9 5 6 7 8 9 4 8 7 7 9 18 23 49 56 53 62 70 66 60
16 12 19 22 10 8 11 7 5 12 13 18 22 27 36 47 34 23 35 33 37 25 11 18 23 35 28 28 30 20 33 23 26 19 8 5 6 15 7 6 8 11 23 11 11 17 7 30 59 70 65 59 59 50
10 6 10 14 13 12 15 11 2 8 12 15 17 23 28 29 39 49 41 44 28 15 11 12 31 31 29 21 23 22 25 33 14 7 6 4 6 6 3 4 7 22 15 13 15 39 32 44 50 51 61 62 59 59
10 4 2 8 9 10 16 15 8 9 10 15 15 13 18 20 17 16 12 39 35 36 15 6 8 15 23 24 27 25 25 18 8 6 4 5 7 4 6 7 20 54 55 64 14 9 24 42 50 54 54 65 67 66
10 11 11 8 9 13 19 24 20 16 14 12 14 14 16 21 16 15 13 13 24 17 10 7 5 7 12 15 13 13 12 12 7 5 4 2 2 6 5 7 44 52 45 48 56 62 57 76 71 76 64 57 61 70
18 21 25 22 19 17 18 18 18 15 13 13 15 15 17 20 22 27 21 16 16 14 11 7 4 5 6 6 7 8 7 8 4 5 5 3 1 1 8 38 84 63 52 60 84 78 81 89 84 85 84 88 92 89
24 33 35 38 31 25 20 20 17 14 11 9 9 9 10 6 9 12 17 17 15 11 9 7 8 6 9 6 7 6 4 3 1 3 5 10 4 12 23 26 49 83 63 71 72 64 63 63 80 83 80 82 85 83
18 33 45 46 38 33 27 21 16 11 7 4 4 2 8 9 10 9 7 7 9 13 11 4 7 3 7 4 3 7 3 2 3 6 2 7 9 55 58 73 80 92 91 78 66 65 69 74 81 86 88 86 85 85
2 32 46 48 41 35 28 23 13 6 2 3 5 7 7 9 9 7 7 8 9 6 7 4 5 7 5 6 4 1 4 1 4 7 6 6 9 15 41 51 53 54 65 66 69 73 76 76 80 75 79 75 70 66
14 27 45 44 39 34 28 21 13 5 5 6 7 12 8 4 4 9 1 3 2 7 6 4 5 9 8 5 7 2 5 4 8 3 5 7 13 39 32 36 37 42 45 49 53 59 63 68 72 76 76 77 70 61
27 36 40 39 38 34 28 23 18 8 3 5 5 5 4 4 9 7 5 6 4 11 15 10 3 6 7 5 9 5 5 7 3 2 8 12 27 41 36 31 26 25 28 31 34 41 44 48 51 55 57 53 51 48
39 43 44 45 39 36 32 30 24 17 5 1 4 2 5 6 8 8 8 8 6 5 28 22 11 6 5 4 4 7 3 4 1 3 14 8 38 24 15 18 21 22 23 26 29 33 36 40 37 38 37 35 35 37
51 48 54 51 51 45 39 34 32 27 10 6 7 9 11 7 6 4 11 12 11 33 34 13 10 4 1 4 3 8 5 8 12 11 7 18 13 21 25 32 34 32 32 32 32 30 29 33 29 31 32 31 33 33
48 59 59 55 49 52 45 44 40 33 9 11 14 5 5 2 5 12 19 16 28 40 20 9 6 6 8 6 6 15 13 15 10 8 34 12 13 23 37 42 39 37 37 32 29 29 25 25 27 29 32 31 27 27
36 47 60 60 50 52 57 56 48 23 17 15 11 34 27 6 8 13 24 25 43 36 6 8 9 15 4 2 7 10 12 8 12 19 28 38 50 53 50 51 47 46 44 38 31 31 28 26 28 34 34 29 31 31
54 36 41 56 64 59 72 58 25 20 14 15 10 22 32 19 14 16 22 33 39 24 21 11 12 10 12 13 10 9 36 52 53 59 68 70 68 65 59 49 45 50 48 43 36 34 30 28 31 28 28 32 36 38
58 39 38 45 53 50 21 22 18 14 12 11 18 19 18 14 26 18 20 38 34 20 10 9 5 8 9 13 17 46 54 58 65 70 67 69 72 73 67 62 68 61 58 50 45 38 33 28 29 34 35 40 39 38
45 35 39 49 57 24 16 10 11 8 10 15 15 22 13 10 16 19 25 33 37 12 5 7 12 30 26 52 41 46 47 52 60 74 77 76 78 74 72 73 68 59 58 56 56 50 37 35 38 41 42 45 46 44
59 48 53 48 55 28 12 15 13 11 14 13 16 18 9 11 10 14 17 30 19 15 7 35 54 65 68 66 65 68 75 77 78 74 79 84 81 81 83 78 73 69 65 63 63 58 52 44 44 47 47 49 49 45
60 75 49 50 17 25 12 15 9 20 14 15 20 13 9 7 9 11 20 19 16 20 26 39 51 53 66 74 76 74 71 70 71 73 70 67 74 73 73 73 70 70 66 67 66 69 67 57 53 58 56 52 50 49
70 61 26 19 12 15 7 21 9 11 6 9 11 6 4 6 11 15 9 15 18 18 18 25 24 26 30 26 21 21 24 27 30 30 35 41 47 49 52 49 50 60 70 76 69 72 73 69 69 70 65 58 56 57
63 43 20 29 16 9 16 7 9 10 9 7 9 8 5 7 14 5 7 10 11 11 10 17 24 34 32 34 39 41 41 42 44 45 39 43 51 55 55 57 55 52 52 56 62 66 68 70 67 68 65 63 62 64
22 17 23 10 12 13 8 7 5 5 8 8 9 6 6 13 5 7 7 6 11 5 16 23 28 34 40 45 47 50 49 53 58 63 59 56 54 58 62 61 60 53 44 50 53 56 60 62 68 72 69 67 65 65
12 16 16 13 8 14 16 13 17 13 9 9 6 10 11 6 5 10 5 5 6 15 26 32 38 43 39 39 52 56 54 52 55 59 58 59 60 61 66 69 70 65 51 48 48 48 49 52 57 66 73 70 66 66
14 10 12 14 22 24 10 9 11 7 12 14 11 11 9 11 13 3 10 18 17 22 25 27 30 35 45 53 52 51 52 52 53 59 63 59 49 40 41 47 54 55 55 57 54 52 51 50 51 52 58 64 67 64
13 26 18 24 11 11 11 8 11 14 10 18 22 12 17 6 4 7 9 15 18 20 23 29 36 43 47 50 53 57 60 58 57 55 52 39 31 37 30 29 43 49 52 53 49 46 46 44 45 45 46 49 53 55
8 32 35 9 7 6 8 10 12 11 27 28 6 7 7 14 26 29 29 24 24 28 34 40 42 41 43 47 49 48 52 55 54 58 59 61 63 51 49 53 48 43 43 48 43 40 35 33 34 36 34 34 34 39
4 19 11 8 11 8 4 11 16 32 23 22 23 43 52 41 52 54 47 39 41 44 42 42 44 48 53 59 66 60 55 54 55 55 62 65 68 65 60 52 46 43 39 39 41 32 32 32 27 29 27 25 26 30
8 4 9 9 7 5 18 31 33 35 23 20 29 37 33 27 24 50 63 53 47 47 46 48 49 49 52 55 63 75 78 67 58 51 48 52 54 54 51 47 46 43 40 40 35 32 23 30 29 25 26 26 26 28
17 10 3 8 5 15 19 8 11 11 10 10 12 15 18 14 12 19 45 53 54 58 58 52 47 48 44 44 47 52 58 63 60 55 54 52 51 49 48 48 46 40 36 36 28 22 22 21 27 25 23 24 24 25
7 14 14 12 8 5 6 11 9 8 14 10 12 14 17 13 12 21 19 45 50 57 59 53 42 36 41 43 50 53 54 57 58 54 49 47 47 48 46 41 37 33 28 23 18 16 16 16 17 19 19 20 21 21
Wind_Direction_850mb
14 10 13 34 78 77 49 43 51 54 49 44 47 47 75 83 70 146 117 131 118 93 58 107 106 120 125 141 142 160 112 347 32 87 114 186 131 210 108 171 173 157 152 173 95 83 261 172 135 171 198 187 210 215
18 23 28 63 64 60 59 38 38 54 50 57 53 51 59 65 93 113 94 117 126 101 97 88 89 104 112 112 128 121 105 122 148 104 126 112 87 87 148 211 202 207 184 183 187 211 189 184 200 211 229 221 225 235
17 37 28 41 57 71 89 70 34 31 53 59 57 54 60 64 87 106 107 99 101 96 76 83 64 89 113 137 151 127 134 131 128 112 140 143 147 130 163 237 108 252 182 189 99 242 212 207 214 226 232 240 249 255
8 40 42 22 46 130 143 128 62 27 52 63 66 55 59 64 73 101 123 75 83 88 86 45 83 76 89 129 148 143 140 131 142 127 96 135 148 196 194 164 173 193 153 169 261 272 341 252 232 233 235 245 251 256
354 6 54 39 37 152 155 157 99 52 38 58 73 65 46 58 65 70 75 63 65 72 120 96 78 68 77 111 126 134 164 164 141 74 70 202 131 116 2 58 253 181 183 183 226 222 213 246 250 247 243 249 255 265
285 300 121 81 57 95 131 152 148 83 69 77 85 79 52 49 43 55 71 57 75 104 108 73 70 66 94 102 119 124 142 138 126 113 163 166 170 166 143 206 251 221 216 226 236 213 251 272 280 274 270 271 273 276
285 272 210 175 131 125 123 123 120 113 94 92 83 66 54 50 34 72 87 32 46 55 82 86 52 67 101 121 109 91 91 79 79 99 55 89 217 195 115 217 259 256 253 259 264 266 266 265 268 274 274 282 286 285
273 244 214 190 173 156 141 136 134 126 114 91 73 67 55 51 47 58 70 80 53 60 64 101 85 61 98 70 66 94 104 131 129 137 136 179 340 193 250 241 251 266 265 266 266 263 263 271 274 275 279 283 283 281
276 243 210 191 181 175 160 149 145 135 122 103 73 55 48 30 44 36 57 72 62 75 103 78 127 196 144 97 105 92 94 38 208 205 218 165 218 223 225 253 255 263 254 262 274 275 275 267 275 279 278 277 274 278
304 201 194 187 182 176 177 175 168 153 131 85 46 61 61 33 40 39 40 29 36 33 59 106 145 96 134 138 58 111 70 164 185 256 220 222 249 247 251 257 266 271 275 277 273 273 267 266 270 276 276 277 278 278
207 180 184 184 184 180 182 189 189 180 74 46 51 72 52 42 30 43 53 44 3 31 36 75 72 141 126 106 160 91 180 275 46 269 138 270 277 242 269 276 278 283 278 275 271 273 277 275 275 275 278 278 279 278
183 185 184 186 188 187 191 192 188 152 64 74 63 68 61 48 65 87 35 14 160 203 164 160 107 86 114 119 95 198 129 64 244 316 45 273 251 274 278 279 281 276 274 274 273 273 274 274 272 271 270 271 272 271
196 185 189 196 195 194 195 192 181 167 133 40 48 60 41 2 29 115 218 297 297 179 171 152 96 98 111 110 68 78 105 221 116 50 235 238 275 284 294 292 282 278 280 276 274 272 271 270 267 267 266 264 262 259
201 201 200 197 203 205 202 202 189 173 145 48 83 240 158 223 230 189 184 189 168 178 148 120 101 98 108 106 124 139 242 81 36 270 238 254 273 319 323 323 313 312 306 303 300 294 290 285 277 264 255 247 244 246
205 207 204 208 203 201 203 202 194 182 175 192 175 228 216 210 228 198 182 152 131 147 143 105 84 123 89 131 150 94 41 247 215 229 229 255 318 328 335 332 330 327 323 321 313 308 295 286 274 263 246 239 239 235
210 210 209 206 209 203 202 201 195 192 209 211 209 193 181 136 255 211 196 171 154 156 136 115 113 74 241 160 124 214 155 221 240 215 241 283 340 330 326 319 311 310 309 312 315 314 306 291 272 262 260 261 252 242
226 217 212 208 204 201 203 202 196 197 215 202 227 217 189 191 161 181 192 183 174 161 171 141 171 216 88 96 244 191 212 227 223 255 280 293 308 315 320 315 306 296 296 299 315 319 313 296 281 272 267 266 257 245
226 218 206 203 203 196 191 190 196 203 197 190 177 201 202 215 182 183 183 175 168 195 165 198 138 177 204 198 241 237 241 261 277 286 295 303 308 309 309 309 320 312 290 283 285 293 300 299 292 290 274 257 250 243
222 211 208 191 187 198 194 208 203 188 195 183 193 179 186 200 211 206 189 185 187 179 172 168 215 207 226 221 236 261 269 276 286 296 299 302 305 306 306 305 310 310 302 281 278 279 283 290 301 292 276 264 255 246
213 209 201 190 184 180 181 219 201 191 177 190 183 172 174 176 180 190 191 190 192 183 189 214 223 236 229 250 267 278 288 295 300 304 303 303 303 301 298 298 298 297 293 292 279 274 278 291 300 295 285 274 264 253
196 180 192 192 192 199 200 187 179 180 158 160 172 166 159 152 160 172 180 179 182 212 232 233 246 257 264 268 277 286 290 293 293 292 291 294 297 296 294 294 293 291 283 279 279 270 270 279 299 295 287 277 269 260
175 182 169 175 180 185 201 193 155 154 149 139 151 168 137 139 157 163 169 188 231 229 221 257 268 281 289 289 291 291 292 290 287 286 288 289 288 291 291 289 288 286 285 279 276 273 273 275 281 285 281 279 266 255
172 170 146 152 166 177 170 171 158 156 137 158 138 130 155 147 164 160 229 225 247 247 258 280 307 320 323 344 350 357 338 323 314 311 314 312 312 314 313 308 294 285 282 278 278 275 273 272 272 274 273 270 262 251
174 167 158 162 162 141 146 124 135 117 115 159 160 167 178 147 155 164 251 241 219 141 32 9 352 353 3 2 355 354 349 344 337 331 332 328 321 320 316 315 311 306 301 293 283 275 270 267 268 267 265 262 257 250
148 173 155 143 147 122 127 118 141 159 170 174 159 152 173 161 175 204 229 250 167 93 1 355 353 354 345 342 344 346 347 341 335 327 328 329 320 315 314 313 310 310 313 308 300 289 282 273 265 263 262 260 257 252
178 170 161 148 147 158 172 144 184 168 142 149 163 116 150 157 171 239 200 108 88 7 354 348 342 338 344 343 335 339 340 335 327 321 324 323 321 317 312 310 313 312 316 308 305 301 292 283 271 264 261 260 259 256
153 163 152 141 141 134 105 92 134 140 170 170 163 167 162 182 218 214 123 15 7 358 354 346 339 340 339 340 340 337 332 327 319 314 316 318 319 311 308 308 311 317 313 305 298 290 293 291 285 276 265 260 259 260
130 157 155 168 128 153 128 136 154 179 167 142 137 173 174 181 110 69 27 17 9 358 355 360 359 353 348 345 342 337 332 328 322 319 315 317 316 320 310 306 311 310 313 311 303 286 281 281 286 285 276 266 259 258
104 127 124 94 108 153 185 163 188 178 152 163 130 117 94 67 82 68 53 43 27 18 13 7 2 354 349 347 349 353 350 345 345 341 334 325 323 323 315 310 311 307 307 316 314 290 275 269 279 286 282 276 266 259
118 147 102 124 144 164 148 134 137 143 124 122 99 104 102 95 65 53 47 42 36 32 28 23 16 12 12 8 358 354 355 353 349 343 333 325 321 321 324 320 313 314 312 310 321 312 279 267 266 277 278 273 267 264
347 92 90 72 88 78 120 120 123 120 109 83 107 123 123 141 83 39 34 30 33 31 26 24 26 21 15 15 5 357 356 358 351 344 337 329 326 326 326 324 319 312 315 310 299 325 309 278 271 274 281 280 276 273
12 25 86 105 96 122 117 97 95 84 80 76 73 99 115 108 82 38 11 11 20 23 22 16 12 12 11 9 7 4 1 359 355 352 349 345 341 336 332 328 324 316 309 310 297 301 319 313 291 278 277 278 278 276
17 36 70 102 106 110 114 103 78 88 66 76 71 67 61 75 86 27 3 13 13 13 9 8 9 11 12 14 11 6 6 6 6 2 357 354 352 347 341 337 333 329 323 324 314 305 311 307 297 292 288 284 279 273